Regional Weather Roundup
Issued by NWS

Home | Current Version | Previous Version | Graphics & Text | Print | Product List | Glossary On
Versions: 1 2 3 4 5 6 7 8 9 10 11 12 13 14 15 16 17 18 19 20 21 22 23 24 25 26 27 28 29 30 31 32 33 34 35 36 37 38 39 40 41 42 43 44 45 46 47 48 49 50
000
ASUS43 KIND 240609
RWRIN

WEATHER ROUNDUP FOR INDIANA
NATIONAL WEATHER SERVICE INDIANAPOLIS IN
200 AM EDT THU APR 24 2014

NOTE: "FAIR" INDICATES FEW OR NO CLOUDS BELOW 12,000 FEET WITH NO
SIGNIFICANT WEATHER AND/OR OBSTRUCTIONS TO VISIBILITY.

* - STATION DOES NOT REPORT WEATHER SUCH AS PRECIPITATION OR FOG.

+ - STATION NOT QUALITY CONTROLLED BY THE NATIONAL WEATHER SERVICE.
    USE DATA WITH CAUTION...ESPECIALLY DEWPOINT AND RELATIVE
    HUMIDITY OBSERVATIONS.

INZ001>003-010>013-019-020-240700-
NORTHWEST INDIANA

CITY           SKY/WX    TMP DP  RH WIND       PRES   REMARKS
GARY /AIRPORT/ LGT RAIN  45  33  63 CALM      30.05R
LA PORTE +     CLOUDY    44  31  60 E6        30.04S
6HR MIN TEMP:  40; 6HR MAX TEMP:  44;

MICHIGAN CITY+ CLOUDY    43  30  61 E5        30.05R
MONTICELLO +   CLOUDY    50  37  62 E6        30.01F
RENSSELAER +   DRIZZLE   45  41  87 NE6       30.03R
VALPARAISO     CLOUDY    43  33  68 E7        30.04S
6HR MIN TEMP:  39; 6HR MAX TEMP:  43;


$$

LMZ046-743>745-240700-
SOUTHERN LAKE MICHIGAN

STATION/POSITION TIME  TEMP WIND        PRES
                       AIR  DIR/SP/G
                 (UTC) (F)  (DEG/KT/KT) (MB)
MICHIGAN CITY    0600   44   60/  8/ 10   N/A

$$

INZ004-005-014>016-021>024-240700-
NORTH CENTRAL INDIANA

CITY           SKY/WX    TMP DP  RH WIND       PRES   REMARKS
GOSHEN         CLOUDY    48  35  60 E6        30.05F
6HR MIN TEMP:  48; 6HR MAX TEMP:  54;

LOGANSPORT +   LGT RAIN  50  34  53 E7        30.04F
PERU/GRISSOM   CLOUDY    51  34  52 E8        30.03F
6HR MIN TEMP:  50; 6HR MAX TEMP:  54;

ROCHESTER +    FAIR      50  36  57 E7        30.04F
SOUTH BEND     CLOUDY    47  31  53 E7        30.06S
6HR MIN TEMP:  44; 6HR MAX TEMP:  49;

WARSAW +       CLOUDY    48  30  49 SE7       30.05F

$$

INZ006>009-017-018-025>027-240700-
NORTHEAST INDIANA

CITY           SKY/WX    TMP DP  RH WIND       PRES   REMARKS
ANGOLA *+      CLOUDY    48  23  37 SE7       30.08S
AUBURN +       CLOUDY    48  27  43 E6        30.08S
FORT WAYNE     CLOUDY    48  32  53 E6        30.08S
6HR MIN TEMP:  47; 6HR MAX TEMP:  54;


$$

INZ028-029-035-036-043>045-051>053-240700-
WEST CENTRAL INDIANA

CITY           SKY/WX    TMP DP  RH WIND       PRES   REMARKS
GREENCASTLE +  FAIR      50  34  53 SE7       30.03S
LAFAYETTE      CLOUDY    53  31  42 SE6       30.03R
6HR MIN TEMP:  51; 6HR MAX TEMP:  56;

TERRE HAUTE    FAIR      51  36  56 SE3       30.02S
6HR MIN TEMP:  50; 6HR MAX TEMP:  57;


$$

INZ030>032-037>040-046>048-054>057-064-065-240700-
CENTRAL INDIANA

CITY           SKY/WX    TMP DP  RH WIND       PRES   REMARKS
CP ATTERBURY + CLOUDY    52  34  50 E8        30.04F
INDIANAPOLIS   CLOUDY    52  31  44 E13       30.02F
6HR MIN TEMP:  52; 6HR MAX TEMP:  56;

-EAGLE CREEK   MOCLDY    53  30  41 E10       30.01F
6HR MIN TEMP:  51; 6HR MAX TEMP:  56;

KOKOMO *+      CLOUDY    52  34  50 SE10      30.04F
MARION +       CLOUDY    49  31  49 SE7       30.05S
MT COMFORT *+  FAIR      52  34  50 SE8       30.05F
SHELBYVILLE    CLOUDY    53  34  48 E9        30.05R
6HR MIN TEMP:  52; 6HR MAX TEMP:  59;

ZIONSVILLE +   MOCLDY    52  31  44 E8        30.03F
6HR MIN TEMP:  48; 6HR MAX TEMP:  55;


$$

INZ033-034-041-042-049-050-058-059-240700-
EAST CENTRAL INDIANA

CITY           SKY/WX    TMP DP  RH WIND       PRES   REMARKS
MUNCIE           N/A     48  33  56 SE9       30.05F
6HR MIN TEMP:  45; 6HR MAX TEMP:  55;


$$

INZ060-061-067>069-081>083-085>088-240700-
SOUTHWEST INDIANA

CITY           SKY/WX    TMP DP  RH WIND       PRES   REMARKS
EVANSVILLE     FAIR      53  37  54 NE3       30.03R
6HR MIN TEMP:  53; 6HR MAX TEMP:  63;

HUNTINGBURG *+ FAIR      50  34  53 SE7       30.03S
6HR MIN TEMP:  50; 6HR MAX TEMP:  61;

WASHINGTON +   FAIR      49  37  63 SE3       30.02R
6HR MIN TEMP:  49; 6HR MAX TEMP:  62;


$$

INZ062-063-066-070>080-084-089>092-240700-
SOUTH CENTRAL AND SOUTHEAST INDIANA

CITY           SKY/WX    TMP DP  RH WIND       PRES   REMARKS
BEDFORD +      FAIR      54  30  40 E7        30.03
BLOOMINGTON    FAIR      53  31  42 E6        30.02S
6HR MIN TEMP:  53; 6HR MAX TEMP:  57;


$$




USA.gov is the U.S. government's official web portal to all federal, state and local government web resources and services.